www.pogodaiklimat.ru

Погода и климат >> Архив погоды >> Канада >> Vancouver


АРХИВ ПОГОДЫ в Vancouver

Время (UTC), дата Ветер
(напр.,м/с)
 
Видим.   Явления Облачность Т
(С)
Тd
(С)
f
(%)
Тe
(С)
Тes
(С)
Комфортность P
(гПа)
Po
(гПа)
Тmin
(С)
Tmax
(С)
R
(мм)
S
(см)
18 15.02 В 6 24 км {дождь} 10/10 200 м
[Cu Sc]
+10.2 +8.8 91 +7 +7 тепло 1005.9 1005.3 +6.2 +10.3 4
21 15.02 В 5 12 км 10/10 100 м
[]
+10.6 +10.0 96 +8 +8 тепло 1003.1 1002.5
00 16.02 В 7 16 км дождь 10/10 200 м
[Sc Ci sp]
+10.8 +9.9 94 +7 +7 по сезону 997.2 996.6 +7.5 +11.1 7
03 16.02 В 8 24 км 10/10 600 м
[]
+11.0 +9.6 91 +7 +7 тепло 994.9 994.3
06 16.02 ЮВ 7 24 км в посл. час дождь 10/4 300 м
[Sc Ac As]
+11.6 +10.0 90 +8 +8 тепло 992.9 992.3 +7.5 +12.2 4 51
09 16.02 ЮВ 6 24 км 10/10 300 м
[]
+11.2 +9.8 91 +8 +8 тепло 991.5 990.9
12 16.02 ЮВ 3 24 км {дождь} 10/1 1000 м
[Sc Ac As Cs]
+10.2 +8.0 86 +8 +8 тепло 992.9 992.3 +9.5 +12.2 2
15 16.02 ЮВ 2 45 км 10/10 1500 м
[]
+10.1 +5.1 71 +9 +9 тепло 993.5 992.9
18 16.02 Ю 2 45 км 9/3 600 м
[Cu Sc Ac As]
+8.7 +4.2 73 +7 +8 тепло 995.9 995.3 +8.0 +12.0
21 16.02 ЮВ 3 45 км 9/9 600 м
[]
+11.2 +5.3 67 +9 +10 тепло 997.5 996.9
00 17.02 Ю 2 45 км 9/4 600 м
[Cu Sc Ac trans Cs]
+10.9 +4.8 66 +10 +11 тепло 999.3 998.7 +8.0 +12.7
03 17.02 В 3 24 км 6/6 600 м
[]
+7.3 +4.8 84 +5 +5 по сезону 1001.6 1001.0
06 17.02 В 3 30 км 6/1 1000 м
[Sc Ac As Cs]
+5.8 +4.5 91 +2 +2 по сезону 1003.7 1003.1 +4.8 +12.7 71
09 17.02 В 4 30 км 9/9 1500 м
[]
+5.0 +3.7 91 +1 +1 по сезону 1006.4 1005.8
12 17.02 В 4 30 км 10/3 1000 м
[Sc Ac As]
+5.8 +4.6 92 +2 +2 по сезону 1007.2 1006.6 +4.5 +12.7
15 17.02 В 5 16 км 10/10 200 м
[]
+6.7 +5.3 91 +3 +3 по сезону 1007.5 1006.9
18 17.02 В 3 24 км в посл. час ливневой дождь 9/6 200 м
[Sc Ac As Ci fib]
+7.8 +6.4 91 +5 +6 по сезону 1007.5 1006.9 +4.5 +7.9 0.8
21 17.02 В 3 30 км 9/9 300 м
[]
+9.3 +4.5 72 +7 +8 по сезону 1005.9 1005.3
00 18.02 СЗ 5 30 км 3/1 1000 м
[Cu hum Ac As]
+8.8 +5.6 80 +6 +6 по сезону 1003.4 1002.8 +4.5 +10.7
03 18.02 СЗ 4 30 км 3/0
[]
+5.5 +4.6 94 +1 +1 прохладно 1002.6 1002.0
06 18.02 СЗ 5 30 км 8/0
[Ci]
+5.3 +4.0 91 +1 +1 по сезону 1001.3 1000.7 +4.5 +10.7
09 18.02 СЗ 6 30 км 10/0
[]
+5.1 +3.9 92 0 0 по сезону 999.8 999.2
12 18.02 СЗ 7 30 км 10/0 2000 м
[Ac As]
+5.1 +4.2 94 -0 -0 по сезону 998.7 998.1 +4.8 +10.7
15 18.02 СЗ 6 24 км 10/10 600 м
[]
+4.9 +4.0 94 -0 -0 по сезону 998.3 997.7
18 18.02 СЗ 2 16 км слабый дождь {ливн. осадки} 10/6 1000 м
[Sc Ac As]
+5.5 +3.8 89 +3 +3 по сезону 997.4 996.8 +4.8 +5.6 0.6
21 18.02 СЗ 5 16 км 10/10 100 м
[]
+5.7 +4.7 93 +1 +1 прохладно 996.2 995.6
00 19.02 СЗ 2 19 км слабый дождь 9/8 300 м
[Sc Ac As]
+5.7 +4.4 91 +3 +3 по сезону 995.9 995.3 +4.8 +6.2 0.6
03 19.02 ЮВ 3 30 км 10/10 300 м
[]
+5.8 +4.3 90 +3 +3 по сезону 996.1 995.5
06 19.02 В 3 30 км пыльные вихри {дождь} 10/9 600 м
[Sc Ac As]
+5.6 +4.6 93 +2 +2 по сезону 996.5 995.9 +4.8 +6.3 0.0 120
09 19.02 СВ 2 9000 м 10/10 200 м
[]
+5.6 +5.0 96 +3 +3 по сезону 996.1 995.5
12 19.02 В 6 24 км {дождь} 10/10 600 м
[Sc]
+5.7 +4.2 90 +1 +1 по сезону 995.4 994.8 +5.4 +6.3 4
15 19.02 В 3 24 км 10/10 600 м
[]
+5.5 +4.0 90 +2 +2 по сезону 995.4 994.8
18 19.02 В 3 19 км слабый ливневой дождь 10/10 1000 м
[Sc]
+6.2 +4.9 91 +3 +3 по сезону 996.1 995.5 +4.7 +6.2 1
21 19.02 В 6 16 км 10/10 300 м
[]
+6.7 +4.7 87 +2 +2 по сезону 997.0 996.4
00 20.02 ЮВ 9 24 км {ливн. осадки} 10/10 600 м
[]
+8.1 +4.5 78 +3 +3 по сезону 997.6 997.0 +4.7 +8.2 2
03 20.02 В 8 24 км 10/10 300 м
[]
+7.5 +4.5 81 +3 +3 по сезону 999.1 998.5
06 20.02 ЮВ 6 24 км {дождь} 9/4 300 м
[Sc Ac As Ci fib]
+6.8 +4.1 83 +2 +2 по сезону 1000.9 1000.3 +4.7 +8.2 0.2 1
09 20.02 ЮВ 5 24 км 10/10 1000 м
[]
+6.2 +4.5 89 +2 +2 по сезону 1002.3 1001.7
12 20.02 В 3 24 км в посл. час дождь 10/9 1000 м
[Sc Ac As]
+5.6 +4.3 91 +2 +2 по сезону 1001.7 1001.1 +5.4 +8.2 1
15 20.02 СВ 4 30 км 8/8 600 м
[]
+4.9 +3.4 90 +1 +1 по сезону 1000.5 999.9
18 20.02 СЗ 3 30 км 8/5 1000 м
[Sc Ac As Ci fib]
+7.4 +4.4 81 +5 +6 по сезону 1000.7 1000.1 +4.7 +7.4
21 20.02 З 8 30 км 9/9 300 м
[]
+7.5 +6.0 90 +2 +2 прохладно 1001.4 1000.8
00 21.02 З 7 30 км 10/3 1000 м
[Sc Ac As Ci fib]
+6.6 +5.1 90 +2 +2 прохладно 1004.2 1003.6 +4.7 +8.7
03 21.02 Ю 1 30 км 8/8 200 м
[]
+5.2 +4.0 92 +4 +4 по сезону 1006.3 1005.7
06 21.02 С 2 30 км 10/10 200 м
[Sc]
+4.9 +3.7 92 +2 +2 по сезону 1006.9 1006.3 +4.0 +8.7 221
09 21.02 СЗ 3 30 км 6/6 600 м
[]
+4.9 +4.3 96 +1 +1 по сезону 1007.7 1007.1
12 21.02 СЗ 2 24 км 10/10 200 м
[Sc]
+3.2 +2.9 98 -0 -0 по сезону 1008.1 1007.5 +1.5 +8.7
15 21.02 З 7 30 км 8/8 200 м
[]
+4.3 +3.0 91 -2 -2 прохладно 1008.5 1007.9
18 21.02 З 8 30 км 9/4 200 м
[Sc Ac As Ci fib]
+6.3 +4.1 86 +1 +1 прохладно 1011.5 1010.9 +1.5 +6.3
21 21.02 СЗ 8 30 км 6/6 300 м
[]
+6.6 +3.9 83 +1 +2 прохладно 1013.5 1012.9
00 22.02 З 2 45 км 6/4 600 м
[Sc Ci fib]
+7.0 +2.7 74 +5 +6 по сезону 1015.1 1014.5 +1.5 +7.4
03 22.02 З 5 30 км 9/9 1500 м
[]
+5.3 +1.6 77 +1 +1 прохладно 1017.1 1016.5
06 22.02 В 3 24 км в посл. час дождь со снегом 8/6 1000 м
[Sc Ac As]
+4.3 +1.0 79 +1 +1 по сезону 1019.1 1018.5 +1.5 +7.4 2 51
09 22.02 ЮВ 3 30 км 5/5 1500 м
[]
+1.8 +0.3 90 -2 -2 прохладно 1020.4 1019.8
12 22.02 С 1 30 км 9/9 300 м
[Sc]
+2.2 +1.2 93 0 0 по сезону 1021.2 1020.6 +0.2 +7.4

 

Местоположение метеостанции Vancouver (Канада): широта 49.20 долгота -123.10 высота над уровнем моря 4 м.

В архиве по умолчанию представлена погода в Vancouver за последнюю неделю. Архивные данные за месяц целиком и за предыдущие месяцы, начиная с января 2011 года, Вы можете получить, выбрав интересующий диапазон дат из раскрывающегося списка и нажав кнопку "Ввод!".

Внимание! Время в таблицах - всемирное. Для получения местного времени необходимо прибавить поправку, которая в Vancouver равна -8 ч.

Смотрите также архив погоды в соседних городах и на ближайших метеорологических станциях:

Погода в Vancouver Hillcrest (Канада) (3 км)
Погода в Vancouver Sea Island Ccg (Канада) (7 км)
Погода в Vancouver (aut) (Канада) (11 км)
Погода в West Vancouver Camp (Канада) (14 км)
Погода в Point Atkinson (Канада) (17 км)
Погода в Sand Heads (Канада) (18 км)
Погода в Cypress Bowl South (Канада) (21 км)
Погода в Cypress Bowl North (Канада) (23 км)
Погода в Howe Sound (Канада) (32 км)
Погода в White Rock Campbell (Канада) (35 км)

Пояснения к столбцам:

Ветер - указаны скорость ветра в м/с - средняя за 10 мин, порывы в срок и между сроками (в фигурных скобках) и направление, откуда дует ветер: С - северный, СВ - северо-восточный, В - восточный, ЮВ - юго-восточный, Ю - южный, ЮЗ - юго-западный, З - западный, СЗ - северо-западный.
Видимость - горизонтальная дальность видимости в метрах или километрах. При видимости от 1 до 10 км при отсутствии осадков обычно наблюдается дымка, при ухудшении видимости до 1 км и менее - туман. В сухую погоду видимость может ухудшаться дымом, пылью или мглою.
Явления - указаны атмосферные явления, наблюдавшиеся в срок или в последний час перед сроком; фигурными скобками обозначены явления, наблюдавшиеся между сроками (за 1-3 часа до срока); квадратными скобками обозначены град или гололедные отложения с указанием их диаметра в мм.
Облачность - указаны через наклонную черту общая и нижняя облачность в баллах и высота нижней границы облаков в метрах; квадратными скобками обозначены формы облаков: Ci - перистые, Cs - перисто-слоистые, Cc - перисто-кучевые, Ac - высококучевые, As - высокослоистые, Sc - слоисто-кучевые, Ns - слоисто-дождевые, Cu - кучевые, Cb - кучево-дождевые. Подробнее классификацию облаков см. в Атласе облаков (PDF).
T - Температура воздуха - температура, измеренная на высоте 2 м над землей.
Td - Температура точки росы - температура, при понижении до которой содержащийся в воздухе водяной пар достигнет насыщения.
f - Относительная влажность воздуха - влажноcть воздуха, измеренная на высоте 2 м над землей.
Te - Эффективная температура - температура, которую ощущает одетый по сезону человек в тени. Характеристика душности погоды. При расчете учитывается влияние влажности воздуха и скорости ветра на теплоощущения человека.
Tes - Эффективная температура на солнце - температура, которую ощущает человек, с поправкой на солнечный нагрев. Характеристика знойности погоды. Зависит от высоты солнца над горизонтом, облачности и скорости ветра. Ночью, в пасмурную погоду, а также при ветре 12 м/с и более поправка равна нулю.
P - Атмосферное давление - приведенное к уровню моря атмосферное давление.
Po - Атмосферное давление - измеренное на уровне метеостанции атмосферное давление.
Tmin - Минимальная температура - минимум температуры воздуха на высоте 2 м над землей.
Tmax - Максимальная температура - максимум температуры воздуха на высоте 2 м над землей.
R - Количество осадков - Количество выпавших осадков, мм. При наведении курсора мыши на число - период времени, за который выпало указанное количество осадков.
S - Снежный покров - Высота снежного покрова, см. При наведении курсора мыши на число - состояние снежного покрова и степень покрытия местности в баллах.